1 Minute Report
Date Time Wind Direction Wind Speed Wind Gust Wind Variable Altimeter Temperature Dewpoint Relative Humidity Visibility Ceiling Precip Present Weather Density Alt Wind Chill Heat Index
17/12/06 16:24 260 07 16 N/A 29.89 35(F), 2(C) 13(F), -11(C) 37% 10 CLR N/A N/A N/A 29 F N/A 2077
17/12/06 16:23 260 08 16 230V290 29.89 35(F), 2(C) 14(F), -10(C) 41% 10 CLR N/A N/A N/A 28 F N/A 2076
17/12/06 16:22 250 08 16 220V290 29.89 35(F), 2(C) 14(F), -10(C) 41% 10 CLR N/A N/A N/A 28 F N/A 2075
17/12/06 16:21 260 08 16 220V290 29.89 35(F), 2(C) 14(F), -10(C) 41% 10 CLR N/A N/A N/A 28 F N/A 2074
17/12/06 16:20 280 09 16 N/A 29.89 35(F), 2(C) 15(F), -9(C) 44% 10 CLR N/A N/A N/A 28 F N/A 2073
17/12/06 16:19 270 10 16 N/A 29.89 35(F), 2(C) 15(F), -9(C) 44% 10 CLR N/A N/A N/A 27 F N/A 2072
17/12/06 16:18 260 08 16 N/A 29.89 35(F), 2(C) 14(F), -10(C) 41% 10 CLR N/A N/A N/A 28 F N/A 2071
17/12/06 03:32 230 05 14 N/A 29.71 50(F), 10(C) 45(F), 7(C) 82% 10 BKN021 BKN029 OVC047 P0001 N/A N/A 48 F N/A 2070
17/12/06 03:31 230 04 14 N/A 29.71 50(F), 10(C) 45(F), 7(C) 82% 10 BKN021 BKN029 OVC047 P0001 N/A N/A 50 F N/A 2069
17/12/06 03:30 230 05 14 210V270 29.71 50(F), 10(C) 45(F), 7(C) 82% 10 BKN021 BKN029 OVC047 P0001 N/A N/A 48 F N/A 2068
17/12/06 03:29 230 07 14 180V270 29.71 50(F), 10(C) 45(F), 7(C) 82% 10 BKN021 BKN032 OVC047 P0001 N/A N/A 47 F N/A 2067
17/12/06 03:28 210 07 14 N/A 29.71 50(F), 10(C) 45(F), 7(C) 82% 10 BKN019 BKN024 OVC047 P0001 N/A N/A 47 F N/A 2066
17/12/06 03:27 210 09 14 200V270 29.71 50(F), 10(C) 45(F), 7(C) 82% 10 SCT017 BKN022 OVC047 P0001 N/A N/A 46 F N/A 2065
17/12/06 03:26 220 09 14 160V270 29.71 50(F), 10(C) 45(F), 7(C) 82% 10 SCT017 BKN022 OVC047 P0001 N/A N/A 46 F N/A 2064
17/12/06 03:25 200 08 N/A 160V230 29.71 50(F), 10(C) 45(F), 7(C) 82% 10 BKN019 BKN024 OVC047 P0001 N/A N/A 47 F N/A 2063
17/12/06 03:24 190 06 N/A N/A 29.71 50(F), 10(C) 45(F), 7(C) 82% 10 BKN019 BKN024 OVC047 P0001 N/A N/A 48 F N/A 2062
17/12/06 03:23 190 04 N/A N/A 29.71 50(F), 10(C) 45(F), 7(C) 82% 10 BKN019 BKN032 OVC047 P0001 N/A N/A 50 F N/A 2061
17/12/06 03:22 210 05 N/A N/A 29.71 50(F), 10(C) 45(F), 7(C) 82% 10 BKN019 BKN032 OVC047 P0001 N/A N/A 48 F N/A 2060
17/12/06 03:21 220 06 N/A N/A 29.71 50(F), 10(C) 45(F), 7(C) 82% 10 BKN019 BKN032 OVC047 P0001 N/A N/A 48 F N/A 2059
17/12/06 03:20 220 05 N/A N/A 29.71 50(F), 10(C) 45(F), 7(C) 82% 10 SCT017 BKN022 OVC047 P0001 N/A N/A 48 F N/A 2058
17/12/06 03:19 220 05 N/A N/A 29.71 50(F), 10(C) 45(F), 7(C) 82% 10 BKN019 BKN032 OVC047 P0001 N/A N/A 48 F N/A 2057
17/12/06 03:18 220 05 N/A N/A 29.71 50(F), 10(C) 45(F), 7(C) 82% 10 BKN019 BKN032 OVC047 P0001 N/A N/A 48 F N/A 2056
17/12/06 03:17 220 05 N/A N/A 29.71 50(F), 10(C) 45(F), 7(C) 82% 10 BKN019 BKN032 OVC047 P0001 N/A N/A 48 F N/A 2055
17/12/06 03:16 200 05 N/A N/A 29.71 50(F), 10(C) 45(F), 7(C) 82% 10 BKN019 BKN032 OVC049 P0001 N/A N/A 48 F N/A 2054
17/12/06 03:15 200 06 N/A N/A 29.71 50(F), 10(C) 45(F), 7(C) 82% 10 BKN019 BKN032 OVC049 P0001 N/A N/A 48 F N/A 2053
17/12/06 03:14 200 07 N/A N/A 29.71 50(F), 10(C) 45(F), 7(C) 82% 10 BKN017 BKN022 OVC049 P0001 N/A N/A 47 F N/A 2052
17/12/06 03:13 210 05 N/A N/A 29.71 50(F), 10(C) 45(F), 7(C) 82% 10 BKN017 BKN022 OVC049 P0001 N/A N/A 48 F N/A 2051
17/12/06 03:12 200 07 N/A 170V240 29.71 50(F), 10(C) 45(F), 7(C) 82% 10 BKN017 BKN022 OVC049 P0001 N/A N/A 47 F N/A 2050
17/12/06 03:11 200 08 N/A N/A 29.71 50(F), 10(C) 45(F), 7(C) 82% 10 BKN017 BKN024 OVC049 P0001 N/A N/A 47 F N/A 2049
17/12/06 03:10 190 07 N/A N/A 29.71 50(F), 10(C) 45(F), 7(C) 82% 10 BKN017 BKN026 OVC049 P0001 N/A N/A 47 F N/A 2048
17/12/06 03:09 180 07 N/A N/A 29.71 50(F), 10(C) 45(F), 7(C) 82% 10 BKN017 BKN026 OVC049 P0001 N/A N/A 47 F N/A 2047
17/12/06 03:08 190 06 N/A N/A 29.71 50(F), 10(C) 45(F), 7(C) 82% 10 BKN017 BKN026 OVC049 P0001 N/A N/A 48 F N/A 2046
17/12/06 03:07 190 07 14 N/A 29.71 50(F), 10(C) 45(F), 7(C) 82% 10 BKN017 BKN026 OVC049 P0001 N/A N/A 47 F N/A 2045
17/12/06 03:06 190 09 14 N/A 29.71 50(F), 10(C) 45(F), 7(C) 82% 10 BKN017 BKN023 OVC033 P0001 N/A N/A 46 F N/A 2044
17/12/06 03:05 190 10 14 N/A 29.71 50(F), 10(C) 46(F), 8(C) 87% 10 BKN017 OVC026 P0001 N/A N/A 46 F N/A 2043
17/12/06 03:04 190 07 14 N/A 29.70 50(F), 10(C) 46(F), 8(C) 87% 10 BKN017 OVC026 P0001 N/A N/A 47 F N/A 2042
17/12/06 03:03 200 05 14 N/A 29.71 50(F), 10(C) 46(F), 8(C) 87% 10 BKN017 OVC026 P0001 N/A N/A 48 F N/A 2041
17/12/06 03:02 200 06 14 N/A 29.71 50(F), 10(C) 46(F), 8(C) 87% 10 BKN017 OVC023 P0001 N/A N/A 48 F N/A 2040
17/12/06 03:01 180 06 14 N/A 29.71 50(F), 10(C) 46(F), 8(C) 87% 10 BKN017 OVC023 N/A N/A N/A 48 F N/A 2039
17/12/06 03:00 200 05 14 N/A 29.71 50(F), 10(C) 45(F), 7(C) 82% 10 BKN017 OVC023 P0002 N/A N/A 48 F N/A 2038
17/12/06 02:59 210 06 14 160V250 29.71 50(F), 10(C) 45(F), 7(C) 82% 10 BKN017 OVC023 P0002 N/A N/A 48 F N/A 2037
17/12/06 02:58 200 09 14 N/A 29.71 50(F), 10(C) 45(F), 7(C) 82% 10 BKN017 OVC023 P0002 N/A N/A 46 F N/A 2036
17/12/06 02:57 190 08 N/A N/A 29.71 50(F), 10(C) 45(F), 7(C) 82% 10 BKN017 OVC023 P0002 N/A N/A 47 F N/A 2035
17/12/06 02:56 200 06 N/A N/A 29.71 50(F), 10(C) 45(F), 7(C) 82% 10 BKN017 OVC023 P0002 N/A N/A 48 F N/A 2034
17/12/06 02:55 190 06 N/A N/A 29.71 50(F), 10(C) 45(F), 7(C) 82% 10 BKN017 OVC023 P0002 N/A N/A 48 F N/A 2033
17/12/06 02:54 190 07 N/A N/A 29.71 50(F), 10(C) 46(F), 8(C) 87% 10 BKN017 OVC023 P0002 N/A N/A 47 F N/A 2032
17/12/06 02:53 200 08 14 N/A 29.71 50(F), 10(C) 46(F), 8(C) 87% 10 BKN017 OVC023 P0002 N/A N/A 47 F N/A 2031
17/12/06 02:52 200 08 14 N/A 29.71 50(F), 10(C) 46(F), 8(C) 87% 10 BKN017 OVC023 P0002 N/A N/A 47 F N/A 2030
17/12/06 02:51 200 07 14 N/A 29.71 50(F), 10(C) 46(F), 8(C) 87% 10 BKN017 OVC023 P0002 N/A N/A 47 F N/A 2029
17/12/06 02:50 200 06 14 N/A 29.71 50(F), 10(C) 46(F), 8(C) 87% 10 BKN019 OVC023 P0002 N/A N/A 48 F N/A 2028
17/12/06 02:49 190 07 14 N/A 29.71 50(F), 10(C) 46(F), 8(C) 87% 10 BKN019 OVC025 P0002 N/A N/A 47 F N/A 2027
17/12/06 02:48 180 09 18 160V220 29.71 50(F), 10(C) 45(F), 7(C) 82% 10 BKN019 OVC025 P0002 N/A N/A 46 F N/A 2026
17/12/06 02:47 190 07 18 160V220 29.71 50(F), 10(C) 45(F), 7(C) 82% 10 BKN019 OVC025 P0002 N/A N/A 47 F N/A 2025
17/12/06 02:46 190 07 18 160V220 29.71 50(F), 10(C) 45(F), 7(C) 82% 10 BKN019 OVC025 P0002 N/A N/A 47 F N/A 2024
17/12/06 02:45 190 09 18 160V220 29.71 50(F), 10(C) 45(F), 7(C) 82% 10 BKN019 OVC025 P0002 N/A N/A 46 F N/A 2023
17/12/06 02:44 200 09 18 N/A 29.71 50(F), 10(C) 45(F), 7(C) 82% 10 BKN019 OVC025 P0002 N/A N/A 46 F N/A 2022
17/12/06 02:43 190 08 18 N/A 29.70 50(F), 10(C) 45(F), 7(C) 82% 10 BKN019 OVC025 P0002 N/A N/A 47 F N/A 2021
17/12/06 02:42 190 08 18 N/A 29.71 50(F), 10(C) 45(F), 7(C) 82% 10 BKN019 OVC025 P0002 N/A N/A 47 F N/A 2020
17/12/06 02:41 190 08 18 N/A 29.71 50(F), 10(C) 45(F), 7(C) 82% 10 BKN019 OVC025 P0002 N/A N/A 47 F N/A 2019
17/12/06 02:40 190 07 18 N/A 29.71 50(F), 10(C) 45(F), 7(C) 82% 10 BKN019 OVC025 P0002 N/A N/A 47 F N/A 2018
17/12/06 02:39 190 10 18 N/A 29.71 50(F), 10(C) 45(F), 7(C) 82% 10 BKN019 OVC025 P0001 N/A N/A 46 F N/A 2017
17/12/06 02:38 190 12 18 N/A 29.71 50(F), 10(C) 45(F), 7(C) 82% 10 OVC019 P0001 N/A N/A 45 F N/A 2016
17/12/06 02:37 190 12 18 N/A 29.71 50(F), 10(C) 45(F), 7(C) 82% 10 OVC019 P0001 N/A N/A 45 F N/A 2015
17/12/06 02:36 200 12 16 N/A 29.71 50(F), 10(C) 45(F), 7(C) 82% 10 OVC019 P0001 N/A N/A 45 F N/A 2014
17/12/06 02:35 200 11 16 N/A 29.71 50(F), 10(C) 45(F), 7(C) 82% 10 OVC019 P0001 N/A N/A 46 F N/A 2013
17/12/06 02:34 190 09 N/A N/A 29.71 50(F), 10(C) 45(F), 7(C) 82% 10 OVC019 P0001 N/A N/A 46 F N/A 2012
17/12/06 02:33 200 09 N/A 160V220 29.71 50(F), 10(C) 45(F), 7(C) 82% 10 OVC019 P0001 N/A N/A 46 F N/A 2011
17/12/06 02:32 190 09 16 N/A 29.71 50(F), 10(C) 45(F), 7(C) 82% 10 OVC019 P0001 N/A N/A 46 F N/A 2010
17/12/06 02:31 190 09 16 N/A 29.71 50(F), 10(C) 45(F), 7(C) 82% 10 OVC019 P0001 N/A N/A 46 F N/A 2009
17/12/06 02:30 200 07 16 N/A 29.71 50(F), 10(C) 45(F), 7(C) 82% 10 OVC019 P0001 N/A N/A 47 F N/A 2008
17/12/06 02:29 200 08 18 N/A 29.71 50(F), 10(C) 45(F), 7(C) 82% 10 OVC019 P0001 N/A N/A 47 F N/A 2007
17/12/06 02:28 200 08 18 N/A 29.72 50(F), 10(C) 45(F), 7(C) 82% 10 OVC019 P0001 N/A N/A 47 F N/A 2006
17/12/06 02:27 200 08 18 N/A 29.72 50(F), 10(C) 45(F), 7(C) 82% 10 OVC019 P0001 N/A N/A 47 F N/A 2005
17/12/06 02:26 190 09 18 N/A 29.72 50(F), 10(C) 45(F), 7(C) 82% 10 OVC019 P0001 N/A N/A 46 F N/A 2004
17/12/06 02:25 190 09 18 N/A 29.72 50(F), 10(C) 45(F), 7(C) 82% 10 OVC019 P0001 N/A N/A 46 F N/A 2003
17/12/06 02:24 200 10 18 N/A 29.72 50(F), 10(C) 45(F), 7(C) 82% 10 OVC019 P0001 N/A N/A 46 F N/A 2002
17/12/06 02:23 200 10 18 N/A 29.72 50(F), 10(C) 45(F), 7(C) 82% 10 OVC019 P0001 N/A N/A 46 F N/A 2001
17/12/06 02:22 190 11 18 150V210 29.72 50(F), 10(C) 45(F), 7(C) 82% 10 OVC019 P0001 N/A N/A 46 F N/A 2000
17/12/06 02:21 180 11 18 N/A 29.72 50(F), 10(C) 45(F), 7(C) 82% 10 OVC019 P0001 N/A N/A 46 F N/A 1999
17/12/06 02:20 180 12 18 N/A 29.72 50(F), 10(C) 45(F), 7(C) 82% 10 OVC019 P0001 N/A N/A 45 F N/A 1998
17/12/06 02:19 190 13 18 160V230 29.72 50(F), 10(C) 45(F), 7(C) 82% 10 OVC019 P0001 N/A N/A 45 F N/A 1997
17/12/06 02:18 190 11 17 160V230 29.72 50(F), 10(C) 45(F), 7(C) 82% 10 OVC019 N/A N/A N/A 46 F N/A 1996
17/12/06 02:17 180 11 17 N/A 29.71 50(F), 10(C) 45(F), 7(C) 82% 10 OVC019 N/A N/A N/A 46 F N/A 1995
17/12/06 02:16 180 11 17 N/A 29.72 50(F), 10(C) 45(F), 7(C) 82% 10 OVC019 N/A N/A N/A 46 F N/A 1994
17/12/06 02:15 180 09 16 N/A 29.72 50(F), 10(C) 45(F), 7(C) 82% 10 OVC019 N/A N/A N/A 46 F N/A 1993
17/12/06 02:14 180 08 16 N/A 29.72 50(F), 10(C) 45(F), 7(C) 82% 10 OVC019 N/A N/A N/A 47 F N/A 1992
17/12/06 02:13 190 08 16 N/A 29.72 50(F), 10(C) 45(F), 7(C) 82% 10 OVC019 N/A N/A N/A 47 F N/A 1991
17/12/06 02:12 200 11 16 N/A 29.72 50(F), 10(C) 45(F), 7(C) 82% 10 OVC019 N/A N/A N/A 46 F N/A 1990
17/12/06 02:11 200 12 16 N/A 29.72 50(F), 10(C) 45(F), 7(C) 82% 10 OVC019 N/A N/A N/A 45 F N/A 1989
17/12/06 02:10 200 10 16 N/A 29.72 50(F), 10(C) 45(F), 7(C) 82% 10 BKN019 OVC026 N/A N/A N/A 46 F N/A 1988
17/12/06 02:09 190 09 N/A N/A 29.72 50(F), 10(C) 45(F), 7(C) 82% 10 BKN019 OVC026 N/A N/A N/A 46 F N/A 1987
17/12/06 02:08 200 08 N/A N/A 29.73 50(F), 10(C) 45(F), 7(C) 82% 10 BKN019 OVC026 N/A N/A N/A 47 F N/A 1986
17/12/06 02:07 200 08 16 N/A 29.73 50(F), 10(C) 45(F), 7(C) 82% 10 BKN019 OVC026 N/A N/A N/A 47 F N/A 1985
17/12/06 02:06 200 08 16 N/A 29.73 50(F), 10(C) 45(F), 7(C) 82% 10 BKN019 OVC026 N/A N/A N/A 47 F N/A 1984
17/12/06 02:05 200 07 16 N/A 29.73 50(F), 10(C) 45(F), 7(C) 82% 10 BKN019 OVC026 N/A N/A N/A 47 F N/A 1983
17/12/06 02:04 190 07 16 N/A 29.73 50(F), 10(C) 45(F), 7(C) 82% 10 BKN019 OVC026 N/A N/A N/A 47 F N/A 1982
17/12/06 02:03 190 07 16 N/A 29.73 50(F), 10(C) 45(F), 7(C) 82% 10 BKN019 OVC026 N/A N/A N/A 47 F N/A 1981
17/12/06 02:02 190 07 16 N/A 29.73 50(F), 10(C) 45(F), 7(C) 82% 10 BKN019 OVC026 N/A N/A N/A 47 F N/A 1980
17/12/06 02:01 190 08 16 N/A 29.73 50(F), 10(C) 45(F), 7(C) 82% 10 BKN019 OVC026 N/A N/A N/A 47 F N/A 1979
17/12/06 02:00 190 08 16 N/A 29.73 50(F), 10(C) 45(F), 7(C) 82% 10 BKN019 OVC026 N/A N/A N/A 47 F N/A 1978
17/12/06 01:59 180 07 16 N/A 29.73 50(F), 10(C) 45(F), 7(C) 82% 10 BKN019 OVC026 N/A N/A N/A 47 F N/A 1977
17/12/06 01:58 180 10 16 N/A 29.73 50(F), 10(C) 45(F), 7(C) 82% 10 BKN019 OVC026 N/A N/A N/A 46 F N/A 1976
17/12/06 01:57 180 11 16 150V220 29.73 50(F), 10(C) 45(F), 7(C) 82% 10 BKN019 OVC026 N/A N/A N/A 46 F N/A 1975
17/12/06 01:56 190 10 15 150V220 29.73 50(F), 10(C) 45(F), 7(C) 82% 10 BKN019 OVC026 N/A N/A N/A 46 F N/A 1974
17/12/06 01:55 200 12 17 N/A 29.73 50(F), 10(C) 45(F), 7(C) 82% 10 BKN019 OVC026 N/A N/A N/A 45 F N/A 1973
17/12/06 01:54 210 12 17 N/A 29.73 50(F), 10(C) 45(F), 7(C) 82% 10 BKN019 OVC024 N/A N/A N/A 45 F N/A 1972
17/12/06 01:53 200 11 17 160V230 29.73 50(F), 10(C) 45(F), 7(C) 82% 10 BKN019 OVC024 N/A N/A N/A 46 F N/A 1971
17/12/06 01:52 190 09 17 160V220 29.73 50(F), 10(C) 45(F), 7(C) 82% 10 BKN019 BKN024 OVC029 N/A N/A N/A 46 F N/A 1970
17/12/06 01:51 190 08 17 N/A 29.73 50(F), 10(C) 45(F), 7(C) 82% 10 BKN019 OVC026 N/A N/A N/A 47 F N/A 1969
17/12/06 01:50 190 10 17 N/A 29.73 50(F), 10(C) 45(F), 7(C) 82% 10 BKN019 OVC026 N/A N/A N/A 46 F N/A 1968
17/12/06 01:49 190 09 17 N/A 29.73 50(F), 10(C) 45(F), 7(C) 82% 10 BKN019 OVC026 N/A N/A N/A 46 F N/A 1967
17/12/06 01:48 180 07 17 N/A 29.73 50(F), 10(C) 45(F), 7(C) 82% 10 BKN019 OVC026 N/A N/A N/A 47 F N/A 1966
17/12/06 01:47 190 07 17 N/A 29.73 50(F), 10(C) 45(F), 7(C) 82% 10 BKN019 OVC026 N/A N/A N/A 47 F N/A 1965
17/12/06 01:46 200 10 17 160V220 29.73 50(F), 10(C) 45(F), 7(C) 82% 10 BKN019 OVC026 N/A N/A N/A 46 F N/A 1964
17/12/06 01:45 190 09 17 N/A 29.73 50(F), 10(C) 45(F), 7(C) 82% 10 BKN019 OVC028 N/A N/A N/A 46 F N/A 1963
17/12/06 01:44 180 07 15 N/A 29.73 50(F), 10(C) 45(F), 7(C) 82% 10 BKN019 OVC028 N/A N/A N/A 47 F N/A 1962
17/12/06 01:43 170 07 15 N/A 29.73 50(F), 10(C) 45(F), 7(C) 82% 10 BKN019 OVC028 N/A N/A N/A 47 F N/A 1961
17/12/06 01:42 170 09 15 N/A 29.73 50(F), 10(C) 45(F), 7(C) 82% 10 BKN019 OVC030 N/A N/A N/A 46 F N/A 1960
17/12/06 01:41 180 09 15 N/A 29.73 50(F), 10(C) 45(F), 7(C) 82% 10 BKN019 OVC030 N/A N/A N/A 46 F N/A 1959
17/12/06 01:40 180 07 15 N/A 29.73 50(F), 10(C) 45(F), 7(C) 82% 10 BKN019 BKN030 OVC046 N/A N/A N/A 47 F N/A 1958
17/12/06 01:39 180 06 15 N/A 29.73 50(F), 10(C) 45(F), 7(C) 82% 10 BKN019 BKN030 OVC046 N/A N/A N/A 48 F N/A 1957